Regional Weather Roundup
Issued by NWS

Home | Current Version | Previous Version | Graphics & Text | Print | Product List | Glossary On
Versions: 1 2 3 4 5 6 7 8 9 10 11 12 13 14 15 16 17 18 19 20 21 22 23 24 25 26 27 28 29 30 31 32 33 34 35 36 37 38 39 40 41 42 43 44 45 46 47 48 49 50
000
ASUS43 KDTX 051710
RWRMI
MICHIGAN HOURLY REGIONAL WEATHER ROUNDUP
NATIONAL WEATHER SERVICE DETROIT/PONTIAC MI
1200 PM EST THU MAR 05 2015

NOTE: "FAIR" INDICATES FEW OR NO CLOUDS BELOW 12,000 FEET WITH NO
SIGNIFICANT WEATHER AND/OR OBSTRUCTION TO VISIBILITY.

MIZ047>049-052>055-059>063-066>070-074>076-081>083-051800-
SOUTHEAST LOWER MICHIGAN

CITY           SKY/WX    TMP DP  RH WIND       PRES   REMARKS
ADRIAN         MOSUNNY   15   2  56 N6        30.41R
ALMA           SUNNY     11  -3  52 W6        30.41S
ANN ARBOR      MOSUNNY   15  -2  46 NW9       30.39R
BAD AXE        MOSUNNY    9  -3  57 W8        30.39F
DETROIT CITY   PTSUNNY   17  -4  39 NW9       30.39S
DETROIT        PTSUNNY   16  -1  47 W7        30.40R
FLINT          SUNNY     12  -5  46 NW10      30.40F WCI  -1
GROSSE ILE     PTSUNNY   18  -2  41 NW12      30.39R
HILLSDALE      MOSUNNY   15   1  52 CALM      30.35S
HOWELL         SUNNY     12  -4  48 W6        30.38R

CITY           SKY/WX    TMP DP  RH WIND       PRES   REMARKS
JACKSON        SUNNY     13  -2  51 NW6       30.38R
LAMBERTVILLE   MOSUNNY   19   3  49 NW5       30.40S
LANSING        SUNNY     13  -3  49 N10       30.41S WCI   0
LAPEER         NOT AVBL
MASON          SUNNY     11  -4  50 NE3       30.40R
MONROE         MOSUNNY   16   1  53 NW8       30.39R
MT. CLEMENS    MOSUNNY   13  -5  45 N10       30.38S WCI   0
PONTIAC        MOSUNNY   12  -5  46 NW12      30.36S WCI  -2
PORT HOPE        N/A     11  -1  58 NW8       30.37F
PORT HURON     PTSUNNY   10  -6  48 NW10G16   30.40R WCI  -3
TRI CITIES     SUNNY     12  -5  46 W9        30.41F
YPSILANTI      MOSUNNY   18  -1  43 N9        30.40R
$$
MIZ043>046-050>051-056>058-064>065-071>073-077>080-051800-
SOUTHWEST LOWER MICHIGAN

CITY           SKY/WX    TMP DP  RH WIND       PRES   REMARKS
BATTLE CREEK   SUNNY     13   1  59 CALM      30.39S
BENTON HARBOR  MOSUNNY   17   4  56 CALM      30.43R
BIG RAPIDS     PTSUNNY   15   1  54 W9        30.37F
COLDWATER      SUNNY     16   1  51 NW3       30.38S
HOLLAND        SUNNY     14   1  56 SE3       30.43S
GRAND RAPIDS   MOSUNNY   12  -2  53 SW5       30.41F
KALAMAZOO      MOSUNNY   15   3  59 CALM      30.40S
MARSHALL       SUNNY     12   0  57 CALM      30.39S
MUSKEGON       PTSUNNY   17   2  51 NW8       30.44S
$$
MIZ016>042-051800-
NORTHERN LOWER MICHIGAN

CITY           SKY/WX    TMP DP  RH WIND       PRES   REMARKS
ALPENA         PTSUNNY   12  -3  51 N3        30.38S
BEAVER ISLAND  SUNNY     10  -3  56 W6        30.42S
BELLAIRE       SUNNY     12  -4  49 CALM      30.42F
CADILLAC       CLOUDY    10  -2  58 W5        30.33S
CHARLEVOIX     SUNNY      9  -1  65 CALM      30.45S
FRANKFORT      LGT SNOW  12   6  76 W3        30.42F
GAYLORD        SUNNY      7  -5  57 W6        30.32S
GRAYLING       SUNNY     10  -6  48 NW7G16    30.35S
HARBOR SPRINGS SUNNY      2  -4  73 SW5       30.41S
HOUGHTON LAKE  SUNNY      9  -5  53 VRB3      30.35F
MANISTEE       CLOUDY    10   1  67 W8        30.43S
OSCODA         MOSUNNY   12  -3  50 NW3       30.37F
PELLSTON       SUNNY      8  -5  55 NW13      30.40F WCI  -8
TRAVERSE CITY  PTSUNNY   11  -1  58 N5        30.40F
$$
MIZ007>008-015-051800-
EASTERN UPPER MICHIGAN

CITY           SKY/WX    TMP DP  RH WIND       PRES   REMARKS
KINROSS        SUNNY     12  -4  48 W8        30.37S
MACKINAC ISLAN SUNNY      5  -4  66 W9        30.40S
NEWBERRY       PTSUNNY    8  -4  58 CALM      30.37S
S. S. MARIE    SUNNY      9  -9  44 VRB7      30.38S
$$
MIZ004>006-011>014-085-051800-
CENTRAL UPPER MICHIGAN

CITY           SKY/WX    TMP DP  RH WIND       PRES   REMARKS
MANISTIQUE     CLOUDY    12  -2  53 NW5       30.40S
ESCANABA       SUNNY      9  -8  47 W5        30.43S
MENOMINEE      SUNNY      9  -6  52 SW8       30.44S
SAWYER-GWINN   SUNNY      7  -6  56 SW6       30.33F
$$
MIZ001>003-009>011-084-051800-
WESTERN UPPER MICHIGAN

CITY           SKY/WX    TMP DP  RH WIND       PRES   REMARKS
IRON MOUNTAIN  SUNNY      7  -7  52 NW3       30.35F
HOUGHTON       CLOUDY     7  -2  66 W15       30.33R WCI -10
COPPER HARBOR    N/A      8  -3  61 N15G21    30.36S WCI  -9
IRONWOOD       SUNNY      3  -6  66 W10       30.35S WCI -12
$$

ABBREVIATIONS USED IN REMARKS
   TC - TEMPERATURE IN CELSIUS
  WCI - WIND CHILL INDEX
   HX - HEAT INDEX
  VSB - VISIBILITY



USA.gov is the U.S. government's official web portal to all federal, state and local government web resources and services.